Torna al catalogo

FENGYUN 1C DEB

AttivoSSO
NORAD 32180·DEBRIS·🇨🇳 China

Lanciato May 10, 1999 da Taiyuan Satellite Launch Center

Loading…

Prossimi Passaggi (prossime 24 ore)

TLE

AggiornatoSource: Space-Track

Epoca: Sep 13, 2026, 08:44 UTC

1 32180U 99025CUA 26256.36435509  .00000018  00000-0  55559-4 0  9997
2 32180  99.5494 305.6199 0136240 206.6496 214.4120 13.82382027980623

Traccia FENGYUN 1C DEB in tempo reale con AllMySat

Download on the App Store